JIA3247 KPIT-KORD

Flight info

Callsign JIA3247
Flight time 1h 11m
Altitude 28000
Route BSV WEEVR Q62 WATSN WATSN4
Aircraft CRJ7/M-SDFGIRWY/S

Departure

Time 2026-05-05 18:44
Airport Pittsburgh International Airport (KPIT)

Arrival

Time 2026-05-05 19:56
Airport Chicago O'Hare International Airport (KORD)
Time Latitude Longitude Altitude Speed Heading
2026-05-05 18:32 40.49441 -80.24359 1155 ft 0 kts 210°
2026-05-05 18:33 40.49448 -80.24354 1155 ft 3 kts 210°
2026-05-05 18:34 40.49464 -80.24343 1157 ft 3 kts 197°
2026-05-05 18:34 40.49482 -80.24342 1156 ft 3 kts 165°
2026-05-05 18:34 40.49492 -80.24348 1157 ft 0 kts 144°
2026-05-05 18:37 40.49474 -80.24331 1156 ft 10 kts 141°
2026-05-05 18:37 40.49418 -80.24247 1152 ft 14 kts 113°
2026-05-05 18:37 40.49412 -80.24124 1154 ft 13 kts 91°
2026-05-05 18:38 40.49411 -80.24007 1155 ft 12 kts 91°
2026-05-05 18:38 40.49393 -80.23905 1154 ft 13 kts 144°
2026-05-05 18:38 40.49293 -80.23897 1149 ft 16 kts 184°
2026-05-05 18:38 40.49174 -80.23901 1148 ft 18 kts 181°
2026-05-05 18:39 40.49067 -80.23854 1145 ft 16 kts 111°
2026-05-05 18:39 40.49060 -80.23704 1146 ft 16 kts 91°
2026-05-05 18:39 40.49057 -80.23561 1147 ft 15 kts 91°
2026-05-05 18:39 40.49054 -80.23417 1146 ft 17 kts 95°
2026-05-05 18:40 40.49047 -80.23255 1143 ft 18 kts 90°
2026-05-05 18:40 40.49046 -80.23090 1144 ft 18 kts 90°
2026-05-05 18:40 40.49042 -80.22927 1143 ft 19 kts 93°
2026-05-05 18:40 40.49031 -80.22748 1141 ft 20 kts 96°
2026-05-05 18:41 40.49024 -80.22571 1145 ft 19 kts 89°
2026-05-05 18:41 40.49028 -80.22394 1141 ft 20 kts 91°
2026-05-05 18:41 40.49036 -80.22207 1141 ft 20 kts 86°
2026-05-05 18:41 40.49034 -80.22028 1143 ft 19 kts 88°
2026-05-05 18:42 40.49025 -80.21849 1145 ft 20 kts 94°
2026-05-05 18:42 40.49019 -80.21662 1141 ft 20 kts 91°
2026-05-05 18:42 40.48988 -80.21480 1142 ft 21 kts 106°
2026-05-05 18:42 40.48982 -80.21291 1143 ft 21 kts 91°
2026-05-05 18:43 40.48978 -80.21099 1141 ft 21 kts 92°
2026-05-05 18:43 40.48948 -80.20942 1142 ft 14 kts 155°
2026-05-05 18:43 40.48893 -80.20973 1141 ft 7 kts 265°
2026-05-05 18:43 40.48894 -80.21062 1140 ft 21 kts 272°
2026-05-05 18:44 40.48908 -80.21601 1139 ft 104 kts 272°
2026-05-05 18:44 40.48949 -80.22914 1231 ft 173 kts 268°
2026-05-05 18:44 40.49024 -80.24617 2021 ft 194 kts 270°
2026-05-05 18:44 40.49156 -80.26416 3241 ft 205 kts 273°
2026-05-05 18:45 40.49345 -80.28307 4458 ft 209 kts 274°
2026-05-05 18:45 40.49735 -80.30147 5404 ft 216 kts 290°
2026-05-05 18:45 40.50436 -80.31970 6222 ft 225 kts 290°
2026-05-05 18:45 40.51118 -80.33837 6986 ft 233 kts 289°
2026-05-05 18:46 40.51770 -80.35856 7776 ft 241 kts 286°
2026-05-05 18:46 40.52353 -80.37925 8556 ft 249 kts 284°
2026-05-05 18:46 40.52912 -80.40157 9272 ft 261 kts 283°
2026-05-05 18:46 40.53449 -80.42512 9619 ft 285 kts 282°
2026-05-05 18:47 40.54012 -80.45190 9786 ft 316 kts 282°
2026-05-05 18:47 40.54610 -80.48099 9929 ft 347 kts 282°
2026-05-05 18:47 40.55258 -80.51242 10826 ft 357 kts 282°
2026-05-05 18:47 40.55913 -80.54378 11851 ft 362 kts 282°
2026-05-05 18:48 40.56591 -80.57582 13014 ft 365 kts 281°
2026-05-05 18:48 40.57273 -80.60854 14182 ft 367 kts 281°
2026-05-05 18:48 40.57933 -80.64044 15261 ft 367 kts 281°
2026-05-05 18:48 40.58598 -80.67280 16392 ft 365 kts 281°
2026-05-05 18:49 40.59256 -80.70492 17550 ft 362 kts 282°
2026-05-05 18:49 40.59923 -80.73665 18640 ft 359 kts 282°
2026-05-05 18:49 40.60370 -80.75809 19191 ft 360 kts 281°
2026-05-05 18:49 40.61235 -80.80024 20304 ft 360 kts 281°
2026-05-05 18:50 40.61883 -80.83198 21160 ft 358 kts 281°
2026-05-05 18:50 40.62532 -80.86355 22053 ft 355 kts 281°
2026-05-05 18:50 40.63179 -80.89474 22971 ft 351 kts 281°
2026-05-05 18:50 40.63824 -80.92546 23819 ft 346 kts 281°
2026-05-05 18:51 40.64450 -80.95590 24493 ft 343 kts 281°
2026-05-05 18:51 40.64867 -80.97632 24981 ft 340 kts 281°
2026-05-05 18:51 40.65479 -81.00611 25705 ft 334 kts 281°
2026-05-05 18:51 40.66079 -81.03540 26438 ft 328 kts 281°
2026-05-05 18:52 40.66648 -81.06324 27139 ft 322 kts 281°
2026-05-05 18:52 40.67233 -81.09185 27541 ft 326 kts 281°
2026-05-05 18:52 40.67834 -81.12105 27720 ft 336 kts 281°
2026-05-05 18:52 40.68452 -81.15126 27796 ft 348 kts 281°
2026-05-05 18:53 40.69091 -81.18259 27832 ft 361 kts 281°
2026-05-05 18:53 40.69750 -81.21510 27857 ft 374 kts 281°
2026-05-05 18:53 40.70429 -81.24881 27873 ft 387 kts 281°
2026-05-05 18:53 40.71127 -81.28369 27874 ft 401 kts 281°
2026-05-05 18:54 40.71846 -81.31977 27876 ft 412 kts 281°
2026-05-05 18:54 40.72580 -81.35677 27873 ft 423 kts 281°
2026-05-05 18:54 40.73320 -81.39402 27867 ft 403 kts 282°
2026-05-05 18:54 40.74023 -81.42881 27851 ft 391 kts 282°
2026-05-05 18:55 40.74688 -81.46295 27846 ft 387 kts 280°
2026-05-05 18:55 40.75256 -81.49741 27842 ft 382 kts 278°
2026-05-05 18:55 40.75789 -81.53156 27845 ft 379 kts 279°
2026-05-05 18:55 40.76426 -81.56513 27847 ft 376 kts 281°
2026-05-05 18:56 40.77101 -81.59828 27908 ft 370 kts 281°
2026-05-05 18:56 40.77774 -81.63089 28401 ft 368 kts 281°
2026-05-05 18:56 40.78412 -81.66354 28946 ft 367 kts 281°
2026-05-05 18:56 40.79017 -81.69626 29460 ft 367 kts 280°
2026-05-05 18:57 40.79609 -81.72928 29713 ft 374 kts 280°
2026-05-05 18:57 40.80209 -81.76312 29816 ft 383 kts 280°
2026-05-05 18:57 40.81494 -81.83319 29872 ft 402 kts 280°
2026-05-05 18:58 40.82820 -81.90651 29883 ft 417 kts 281°
2026-05-05 18:58 40.84156 -81.98021 29950 ft 406 kts 280°
2026-05-05 18:59 40.84791 -82.01575 30457 ft 391 kts 280°
2026-05-05 18:59 40.85407 -82.05012 30934 ft 377 kts 280°
2026-05-05 18:59 40.86004 -82.08330 31400 ft 366 kts 280°
2026-05-05 18:59 40.86588 -82.11573 31649 ft 360 kts 280°
2026-05-05 19:00 40.87165 -82.14780 31754 ft 358 kts 280°
2026-05-05 19:00 40.87740 -82.17976 31811 ft 357 kts 280°
2026-05-05 19:00 40.88890 -82.24350 31852 ft 357 kts 280°
2026-05-05 19:01 40.90050 -82.30728 31868 ft 358 kts 280°
2026-05-05 19:01 40.91186 -82.37133 31871 ft 358 kts 279°
2026-05-05 19:02 40.92314 -82.43553 31881 ft 359 kts 279°
2026-05-05 19:02 40.93443 -82.49990 31868 ft 360 kts 279°
2026-05-05 19:03 40.94569 -82.56437 31866 ft 360 kts 279°
2026-05-05 19:03 40.95699 -82.62903 31863 ft 361 kts 279°
2026-05-05 19:04 40.96820 -82.69374 31861 ft 361 kts 279°
2026-05-05 19:04 40.97946 -82.75861 31863 ft 362 kts 279°
2026-05-05 19:05 40.99079 -82.82358 31853 ft 362 kts 279°
2026-05-05 19:05 41.00221 -82.88858 31851 ft 363 kts 279°
2026-05-05 19:06 41.01357 -82.95374 31852 ft 363 kts 279°
2026-05-05 19:06 41.02462 -83.01905 31849 ft 363 kts 279°
2026-05-05 19:07 41.03573 -83.08434 31844 ft 364 kts 279°
2026-05-05 19:07 41.04679 -83.14975 31847 ft 364 kts 279°
2026-05-05 19:08 41.05780 -83.21521 31850 ft 364 kts 279°
2026-05-05 19:08 41.06884 -83.28084 31855 ft 365 kts 278°
2026-05-05 19:09 41.07996 -83.34652 31861 ft 365 kts 279°
2026-05-05 19:09 41.09118 -83.41221 31862 ft 366 kts 279°
2026-05-05 19:10 41.10229 -83.47811 31865 ft 366 kts 278°
2026-05-05 19:10 41.11323 -83.54455 31862 ft 366 kts 278°
2026-05-05 19:11 41.12413 -83.61055 31864 ft 367 kts 278°
2026-05-05 19:11 41.13492 -83.67662 31875 ft 367 kts 278°
2026-05-05 19:12 41.14577 -83.74286 31872 ft 368 kts 278°
2026-05-05 19:12 41.15669 -83.80928 31870 ft 368 kts 278°
2026-05-05 19:13 41.16770 -83.87577 31910 ft 370 kts 278°
2026-05-05 19:13 41.17874 -83.94202 31922 ft 371 kts 278°
2026-05-05 19:14 41.18949 -84.00937 31624 ft 377 kts 278°
2026-05-05 19:14 41.19499 -84.04339 31241 ft 376 kts 277°
2026-05-05 19:14 41.20041 -84.07742 30879 ft 377 kts 277°
2026-05-05 19:15 41.20581 -84.11152 30516 ft 378 kts 277°
2026-05-05 19:15 41.21124 -84.14566 30177 ft 377 kts 277°
2026-05-05 19:15 41.21666 -84.17955 30011 ft 373 kts 277°
2026-05-05 19:15 41.22165 -84.21302 29932 ft 364 kts 274°
2026-05-05 19:16 41.22598 -84.27907 29887 ft 358 kts 269°
2026-05-05 19:16 41.22717 -84.34509 29884 ft 357 kts 268°
2026-05-05 19:17 41.22840 -84.41089 29889 ft 356 kts 269°
2026-05-05 19:17 41.23034 -84.47645 29883 ft 355 kts 269°
2026-05-05 19:18 41.23203 -84.54183 29881 ft 353 kts 269°
2026-05-05 19:18 41.23378 -84.60697 29877 ft 352 kts 269°
2026-05-05 19:19 41.23485 -84.67194 29877 ft 351 kts 268°
2026-05-05 19:19 41.23673 -84.73670 29874 ft 351 kts 271°
2026-05-05 19:20 41.24002 -84.80142 29898 ft 351 kts 271°
2026-05-05 19:20 41.24238 -84.86621 29897 ft 351 kts 269°
2026-05-05 19:21 41.24431 -84.93153 29889 ft 351 kts 270°
2026-05-05 19:21 41.24636 -84.99674 29896 ft 361 kts 270°
2026-05-05 19:22 41.24738 -85.03017 29906 ft 372 kts 270°
2026-05-05 19:22 41.24844 -85.06536 29909 ft 382 kts 270°
2026-05-05 19:22 41.25052 -85.13737 29909 ft 398 kts 270°
2026-05-05 19:23 41.25258 -85.21197 29904 ft 408 kts 270°
2026-05-05 19:23 41.25460 -85.28700 29887 ft 400 kts 270°
2026-05-05 19:24 41.25660 -85.36042 29873 ft 395 kts 270°
2026-05-05 19:24 41.25864 -85.43299 29889 ft 391 kts 270°
2026-05-05 19:25 41.26056 -85.50505 29883 ft 389 kts 270°
2026-05-05 19:25 41.26226 -85.57670 29884 ft 387 kts 270°
2026-05-05 19:26 41.26404 -85.64794 29896 ft 385 kts 269°
2026-05-05 19:26 41.26559 -85.71931 29901 ft 391 kts 269°
2026-05-05 19:27 41.26718 -85.79326 29556 ft 404 kts 269°
2026-05-05 19:27 41.26813 -85.83012 28880 ft 394 kts 270°
2026-05-05 19:27 41.26935 -85.86623 28276 ft 389 kts 271°
2026-05-05 19:28 41.27159 -85.90189 27703 ft 386 kts 273°
2026-05-05 19:28 41.27463 -85.93718 27121 ft 384 kts 274°
2026-05-05 19:28 41.27793 -85.97189 26565 ft 382 kts 274°
2026-05-05 19:28 41.28016 -85.99554 26192 ft 381 kts 274°
2026-05-05 19:29 41.28332 -86.03049 25647 ft 380 kts 274°
2026-05-05 19:29 41.28618 -86.06543 25112 ft 380 kts 273°
2026-05-05 19:29 41.28956 -86.10022 24585 ft 380 kts 276°
2026-05-05 19:29 41.29402 -86.13496 24074 ft 381 kts 277°
2026-05-05 19:30 41.29880 -86.16962 23567 ft 382 kts 277°
2026-05-05 19:30 41.30353 -86.20431 22994 ft 382 kts 277°
2026-05-05 19:30 41.30802 -86.23914 22406 ft 382 kts 276°
2026-05-05 19:30 41.31211 -86.27411 21828 ft 383 kts 275°
2026-05-05 19:31 41.31598 -86.30916 21256 ft 383 kts 275°
2026-05-05 19:31 41.31987 -86.34427 20717 ft 385 kts 275°
2026-05-05 19:31 41.32397 -86.37949 20176 ft 386 kts 275°
2026-05-05 19:31 41.32801 -86.41488 19642 ft 387 kts 275°
2026-05-05 19:32 41.33199 -86.45036 19121 ft 389 kts 275°
2026-05-05 19:32 41.33599 -86.48598 18617 ft 390 kts 275°
2026-05-05 19:32 41.34003 -86.52171 18110 ft 391 kts 275°
2026-05-05 19:32 41.34585 -86.55714 17522 ft 397 kts 285°
2026-05-05 19:33 41.35764 -86.59068 16964 ft 402 kts 294°
2026-05-05 19:33 41.37119 -86.62283 16430 ft 388 kts 295°
2026-05-05 19:33 41.38423 -86.65307 15974 ft 368 kts 295°
2026-05-05 19:33 41.39738 -86.68154 15531 ft 356 kts 304°
2026-05-05 19:34 41.41654 -86.70204 15064 ft 353 kts 323°
2026-05-05 19:34 41.43766 -86.71784 14637 ft 342 kts 326°
2026-05-05 19:34 41.45858 -86.73231 14305 ft 341 kts 328°
2026-05-05 19:35 41.50233 -86.76019 13666 ft 351 kts 330°
2026-05-05 19:35 41.52465 -86.77375 13303 ft 353 kts 330°
2026-05-05 19:35 41.54814 -86.78408 12973 ft 361 kts 345°
2026-05-05 19:35 41.57319 -86.78810 12653 ft 364 kts 350°
2026-05-05 19:36 41.59849 -86.79007 12375 ft 359 kts 352°
2026-05-05 19:36 41.62276 -86.79124 12170 ft 339 kts 352°
2026-05-05 19:36 41.64563 -86.79203 12078 ft 319 kts 352°
2026-05-05 19:36 41.66724 -86.79285 11893 ft 306 kts 349°
2026-05-05 19:37 41.68821 -86.79532 11526 ft 300 kts 347°
2026-05-05 19:37 41.70879 -86.79842 11160 ft 296 kts 346°
2026-05-05 19:37 41.72913 -86.80166 10808 ft 292 kts 346°
2026-05-05 19:37 41.74918 -86.80491 10475 ft 289 kts 345°
2026-05-05 19:38 41.76871 -86.80789 10235 ft 283 kts 346°
2026-05-05 19:38 41.78806 -86.81103 10110 ft 270 kts 343°
2026-05-05 19:38 41.80590 -86.81446 10005 ft 258 kts 342°
2026-05-05 19:38 41.82386 -86.81856 9650 ft 258 kts 341°
2026-05-05 19:39 41.84205 -86.82336 9412 ft 278 kts 340°
2026-05-05 19:39 41.86130 -86.82982 9188 ft 287 kts 329°
2026-05-05 19:39 41.87829 -86.84403 8994 ft 294 kts 318°
2026-05-05 19:39 41.89501 -86.86078 8770 ft 305 kts 316°
2026-05-05 19:40 41.91178 -86.87904 8589 ft 316 kts 314°
2026-05-05 19:40 41.92856 -86.89824 8382 ft 326 kts 314°
2026-05-05 19:40 41.94604 -86.91842 8171 ft 314 kts 314°
2026-05-05 19:40 41.96165 -86.93610 7936 ft 279 kts 314°
2026-05-05 19:41 41.97603 -86.95238 7683 ft 263 kts 314°
2026-05-05 19:41 41.98942 -86.96763 7427 ft 249 kts 314°
2026-05-05 19:41 42.00232 -86.98237 7186 ft 235 kts 310°
2026-05-05 19:41 42.00909 -87.00055 7087 ft 210 kts 275°
2026-05-05 19:42 42.00709 -87.02000 7052 ft 216 kts 251°
2026-05-05 19:42 42.00212 -87.03944 7035 ft 225 kts 254°
2026-05-05 19:42 41.99835 -87.05891 7025 ft 207 kts 259°
2026-05-05 19:42 41.99623 -87.07659 6952 ft 190 kts 263°
2026-05-05 19:43 41.99501 -87.09391 6799 ft 177 kts 266°
2026-05-05 19:43 41.99438 -87.10989 6626 ft 165 kts 268°
2026-05-05 19:43 41.99405 -87.12473 6462 ft 153 kts 269°
2026-05-05 19:43 41.99381 -87.13843 6280 ft 140 kts 269°
2026-05-05 19:44 41.99366 -87.15091 6065 ft 126 kts 270°
2026-05-05 19:44 41.99352 -87.16322 5845 ft 151 kts 269°
2026-05-05 19:44 41.99330 -87.18019 5894 ft 207 kts 269°
2026-05-05 19:44 41.99307 -87.19889 6446 ft 194 kts 269°
2026-05-05 19:45 41.99289 -87.21708 6446 ft 197 kts 269°
2026-05-05 19:45 41.99267 -87.23602 6331 ft 209 kts 269°
2026-05-05 19:45 41.99240 -87.25605 6207 ft 220 kts 269°
2026-05-05 19:45 41.99211 -87.27690 6052 ft 220 kts 269°
2026-05-05 19:46 41.99185 -87.29653 5866 ft 202 kts 270°
2026-05-05 19:46 41.99160 -87.31474 5669 ft 188 kts 270°
2026-05-05 19:46 41.99142 -87.33180 5447 ft 177 kts 270°
2026-05-05 19:46 41.99121 -87.34787 5211 ft 167 kts 270°
2026-05-05 19:47 41.99100 -87.36292 5049 ft 154 kts 269°
2026-05-05 19:47 41.99078 -87.37729 4979 ft 168 kts 269°
2026-05-05 19:47 41.99055 -87.39472 5030 ft 207 kts 269°
2026-05-05 19:47 41.99030 -87.41391 5050 ft 205 kts 269°
2026-05-05 19:48 41.99004 -87.43328 5044 ft 207 kts 269°
2026-05-05 19:48 41.98979 -87.45236 5023 ft 203 kts 269°
2026-05-05 19:48 41.98956 -87.47182 5009 ft 212 kts 270°
2026-05-05 19:48 41.98932 -87.49124 4997 ft 206 kts 270°
2026-05-05 19:49 41.98908 -87.51079 4993 ft 209 kts 269°
2026-05-05 19:49 41.98888 -87.52393 4991 ft 208 kts 269°
2026-05-05 19:49 41.98849 -87.54974 4974 ft 207 kts 269°
2026-05-05 19:49 41.98815 -87.56907 4975 ft 207 kts 269°
2026-05-05 19:50 41.98793 -87.58813 4977 ft 206 kts 270°
2026-05-05 19:50 41.98790 -87.60750 4945 ft 204 kts 271°
2026-05-05 19:50 41.98811 -87.62674 4616 ft 207 kts 271°
2026-05-05 19:50 41.98821 -87.64627 4299 ft 210 kts 271°
2026-05-05 19:51 41.98828 -87.66601 4026 ft 211 kts 271°
2026-05-05 19:51 41.98827 -87.68491 3718 ft 188 kts 271°
2026-05-05 19:51 41.98826 -87.70148 3464 ft 170 kts 271°
2026-05-05 19:51 41.98828 -87.71753 3220 ft 174 kts 271°
2026-05-05 19:52 41.98832 -87.73349 2996 ft 173 kts 270°
2026-05-05 19:52 41.98833 -87.74940 2781 ft 159 kts 271°
2026-05-05 19:52 41.98825 -87.76269 2565 ft 130 kts 271°
2026-05-05 19:52 41.98831 -87.77415 2389 ft 119 kts 271°
2026-05-05 19:53 41.98833 -87.78502 2228 ft 113 kts 271°
2026-05-05 19:53 41.98829 -87.79608 2106 ft 126 kts 272°
2026-05-05 19:53 41.98831 -87.80771 1932 ft 124 kts 273°
2026-05-05 19:53 41.98831 -87.81938 1801 ft 127 kts 273°
2026-05-05 19:54 41.98838 -87.83036 1681 ft 129 kts 272°
2026-05-05 19:54 41.98839 -87.84041 1457 ft 132 kts 271°
2026-05-05 19:54 41.98840 -87.84929 1294 ft 133 kts 271°
2026-05-05 19:54 41.98848 -87.85808 1200 ft 137 kts 270°
2026-05-05 19:55 41.98846 -87.86764 1082 ft 146 kts 270°
2026-05-05 19:55 41.98840 -87.87740 944 ft 129 kts 270°
2026-05-05 19:55 41.98838 -87.88833 751 ft 106 kts 268°
2026-05-05 19:55 41.98834 -87.89662 668 ft 86 kts 270°
2026-05-05 19:56 41.98831 -87.90327 667 ft 53 kts 269°
2026-05-05 19:56 41.98819 -87.90671 669 ft 30 kts 246°
2026-05-05 19:56 41.98665 -87.90826 667 ft 28 kts 204°
2026-05-05 19:56 41.98498 -87.90855 666 ft 5 kts 180°
2026-05-05 19:57 41.98493 -87.90855 666 ft 0 kts 180°
2026-05-05 19:57 41.98434 -87.90858 664 ft 12 kts 181°
2026-05-05 19:57 41.98354 -87.90861 664 ft 10 kts 192°
2026-05-05 19:58 41.98320 -87.90915 666 ft 7 kts 241°
2026-05-05 19:58 41.98294 -87.90976 667 ft 8 kts 236°
2026-05-05 19:58 41.98252 -87.91066 667 ft 15 kts 238°
2026-05-05 19:58 41.98179 -87.91081 668 ft 10 kts 106°
2026-05-05 19:59 41.98196 -87.91009 668 ft 8 kts 59°
2026-05-05 19:59 41.98221 -87.90945 668 ft 8 kts 65°
2026-05-05 19:59 41.98252 -87.90863 668 ft 15 kts 61°
2026-05-05 19:59 41.98280 -87.90732 667 ft 14 kts 78°
2026-05-05 20:00 41.98290 -87.90600 666 ft 14 kts 92°
2026-05-05 20:00 41.98291 -87.90473 666 ft 16 kts 87°
2026-05-05 20:00 41.98289 -87.90316 667 ft 16 kts 92°
2026-05-05 20:00 41.98290 -87.90168 667 ft 15 kts 89°
2026-05-05 20:01 41.98291 -87.90034 667 ft 14 kts 90°
2026-05-05 20:01 41.98291 -87.89916 668 ft 12 kts 90°
2026-05-05 20:01 41.98290 -87.89809 668 ft 12 kts 90°
2026-05-05 20:01 41.98290 -87.89684 668 ft 15 kts 90°
2026-05-05 20:02 41.98266 -87.89546 668 ft 16 kts 127°
2026-05-05 20:02 41.98181 -87.89434 668 ft 18 kts 136°
2026-05-05 20:02 41.98093 -87.89329 669 ft 16 kts 168°
2026-05-05 20:02 41.98038 -87.89372 669 ft 14 kts 227°
2026-05-05 20:03 41.97958 -87.89495 669 ft 12 kts 220°
2026-05-05 20:03 41.97888 -87.89515 669 ft 10 kts 184°
2026-05-05 20:03 41.97825 -87.89521 669 ft 9 kts 180°
2026-05-05 20:03 41.97792 -87.89529 669 ft 4 kts 228°
2026-05-05 20:04 41.97788 -87.89575 669 ft 6 kts 276°
2026-05-05 20:04 41.97787 -87.89647 669 ft 9 kts 268°
2026-05-05 20:04 41.97786 -87.89733 669 ft 10 kts 284°
2026-05-05 20:04 41.97804 -87.89814 669 ft 9 kts 279°
2026-05-05 20:05 41.97794 -87.89847 669 ft 0 kts 212°
2026-05-05 20:05 41.97791 -87.89849 669 ft 1 kts 210°
2026-05-05 20:05 41.97771 -87.89861 669 ft 4 kts 201°
2026-05-05 20:05 41.97767 -87.89863 669 ft 0 kts 201°